This demonstration page uses our WeatherBlox Daily Observations layout. Learn more.

Left ArrowRight Arrow

Hourly Observations for February 10, 2016

Temp ( °F °C ) Dew Point ( °F °C ) Humidity (%) Winds ( mph kmh ) Pressure ( in mb ) Visibility ( mi km ) Precip ( " mm )
12:53 am 00:53 Clear 37 2.8 25 -3.9 62 62 WSW 10 17 29.99 1016 10 16 0.00 0.00
1:53 am 01:53 Clear 35 1.7 25 -3.9 67 67 WSW 8 13 30.00 1016 10 16 0.00 0.00
2:53 am 02:53 Clear 36 2.2 25 -3.9 64 64 WSW 10 17 30.00 1016 10 16 0.00 0.00
3:53 am 03:53 Clear 36 2.2 25 -3.9 64 64 SW 14 22 29.99 1016 10 16 0.00 0.00
4:53 am 04:53 Clear 37 2.8 25 -3.9 62 62 SW 14 22 30.01 1016 10 16 0.00 0.00
5:53 am 05:53 Clear 34 1.1 26 -3.3 73 73 SW 12 19 30.05 1018 10 16 0.00 0.00
6:53 am 06:53 Clear 31 -0.6 24 -4.4 76 76 WSW 3 6 30.08 1019 10 16 0.00 0.00
7:53 am 07:53 Sunny 29 -1.7 24 -4.4 82 82 W 5 7 30.10 1019 10 16 0.00 0.00
8:53 am 08:53 Sunny 32 0 27 -2.8 82 82 Calm 30.13 1020 10 16 0.00 0.00
9:53 am 09:53 Sunny 38 3.3 28 -2.2 68 68 ENE 5 7 30.15 1021 10 16 0.00 0.00
10:53 am 10:53 Sunny 41 5 28 -2.2 60 60 ENE 5 7 30.15 1021 10 16 0.00 0.00
2:53 pm 14:53 Sunny 50 10 33 0.6 52 52 ENE 5 7 30.10 1019 10 16 0.00 0.00
3:53 pm 15:53 Sunny 48 8.9 33 0.6 56 56 E 9 15 30.10 1019 10 16 0.00 0.00
4:53 pm 16:53 Sunny 44 6.7 32 0 63 63 E 8 13 30.11 1020 10 16 0.00 0.00
5:53 pm 17:53 Clear 39 3.9 32 0 76 76 E 16 26 30.10 1019 10 16 0.00 0.00
6:53 pm 18:53 Mostly Cloudy 37 2.8 31 -0.6 79 79 E 17 28 30.09 1019 10 16 0.00 0.00
7:53 pm 19:53 Cloudy 36 2.2 31 -0.6 82 82 ENE 13 20 30.09 1019 10 16 0.00 0.00
8:53 pm 20:53 Cloudy 35 1.7 31 -0.6 85 85 E 13 20 30.07 1018 10 16 0.00 0.00
9:53 pm 21:53 Cloudy 33 0.6 30 -1.1 89 89 ENE 12 19 30.05 1018 10 16 0.00 0.00
10:53 pm 22:53 Cloudy 33 0.6 31 -0.6 92 92 ENE 10 17 30.04 1017 10 16 0.00 0.00
11:53 pm 23:53 Cloudy 33 0.6 31 -0.6 92 92 ENE 6 9 30.04 1017 9 14 0.00 0.00

Powered by AerisWeather